Weather Roundup
Issued by NWS

Home | Current Version | Previous Version | Text Only | Print | Product List | Glossary On
Versions: 1 2 3 4 5 6 7 8 9 10 11 12 13 14 15 16 17 18 19 20 21 22 23 24 25 26 27 28 29 30 31 32 33 34 35 36 37 38 39 40 41 42 43 44 45 46 47 48 49 50
000
NZUS93 KARX 312159
HRRWXR

CURRENT HOURLY OBSERVATIONS ACROSS
MUCH OF THE UPPER MISSISSIPPI VALLEY
NATIONAL WEATHER SERVICE LA CROSSE WI
500 PM CDT TUE MAR 31 2015


...SOUTHEAST MINNESOTA...


CITY           SKY/WX    TMP DP  RH WIND       PRES   REMARKS
ROCHESTER      SUNNY     61  35  37 W12       29.91F
ROCHESTER/MAYO FAIR      62  31  31 W14G20    29.89F
WINONA         SUNNY     63  32  31 W9        29.89S
AUSTIN         SUNNY     63  32  31 NW13      29.90F
ALBERT LEA     SUNNY     66  28  24 NW8       29.90S
DODGE CENTER   SUNNY     63  28  27 W15       29.90F
PRESTON        SUNNY     61  30  31 NW15      29.90F
OWATONNA       SUNNY     63  30  29 W10       29.90S
FARIBAULT      SUNNY     63  30  29 W9        29.90S
$$

...ELSEWHERE IN MINNESOTA...


CITY           SKY/WX    TMP DP  RH WIND       PRES   REMARKS
MINNEAPOLIS    MOSUNNY   65  26  23 W10       29.88F
INTNL FALLS    MOSUNNY   48  32  53 NE9       29.88S
DULUTH         MOSUNNY   54  27  35 NW14G20   29.86R
RED WING       SUNNY     64  21  19 W12G17    29.87F
REDWOOD FALLS  SUNNY     69  28  21 CALM      29.85F
MANKATO        SUNNY     64  30  27 NW9       29.89F
WORTHINGTON    SUNNY     70  30  23 SW16      29.87F
FAIRMONT       MOSUNNY   72  28  20 W10       29.87F
$$

...SOUTHWEST WISCONSIN...


CITY           SKY/WX    TMP DP  RH WIND       PRES   REMARKS
LA CROSSE      SUNNY     65  30  27 NW13      29.87F
PRAIRIE DU CHI SUNNY     64  29  27 W10G16    29.89F
BOSCOBEL       SUNNY     66  29  24 W8        29.89F
LONE ROCK      NOT AVBL
PLATTEVILLE    SUNNY     62  35  35 SW5       29.91S
FORT MC COY    SUNNY     63  26  25 W9G17     29.88F
VIROQUA        FAIR      60  31  32 W12       29.89F
WIS DELLS      NOT AVBL
$$

...ELSEWHERE IN WISCONSIN...


CITY           SKY/WX    TMP DP  RH WIND       PRES   REMARKS
MILWAUKEE      MOSUNNY   49  33  54 SE12      29.90F
MADISON        PTSUNNY   61  33  35 VRB6      29.88F
GREEN BAY      PTSUNNY   57  39  51 W13       29.83F
EAU CLAIRE     SUNNY     63  24  22 NW16G24   29.86S
BLACK RVR FLS  FAIR      64  23  20 W10G18    29.86S
MEDFORD        SUNNY     55  30  37 W16G24    29.84S
WAUSAU         PTSUNNY   56  32  40 NW9G20    29.82F
WIS RAPIDS     MOSUNNY   60  25  26 NW15G22   29.86S
MARSHFIELD     SUNNY     58  31  35 NW16G26   29.85F
RICE LAKE      MOSUNNY   60  22  23 NW12G17   29.88S
$$

...NORTHEAST IOWA...


CITY           SKY/WX    TMP DP  RH WIND       PRES   REMARKS
DECORAH        SUNNY     61  32  33 NW13G20   29.90F
MASON CITY     SUNNY     69  30  23 NW13      29.91F
CHARLES CITY   SUNNY     64  34  32 NW12G18   29.92F
OELWEIN        SUNNY     66  32  28 NW13G21   29.91F
$$

...ELSEWHERE IN IOWA...


CITY           SKY/WX    TMP DP  RH WIND       PRES   REMARKS
DES MOINES     MOSUNNY   75  28  17 VRB7      29.91F
IOWA CITY      SUNNY     70  30  22 NW13      29.92F
FORT DODGE     SUNNY     72  34  25 W7        29.90F
$$

...NORTHERN ILLINOIS...


CITY           SKY/WX    TMP DP  RH WIND       PRES   REMARKS
CHICAGO-OHARE  MOSUNNY   56  35  45 W15       29.92S
CHICAGO-MIDWAY PTSUNNY   53  35  50 E12       29.94S
MOLINE         SUNNY     70  28  21 NW10      29.89F
ROCKFORD       PTSUNNY   61  35  37 NW8       29.93S
PEORIA         SUNNY     70  30  22 NW9G18    29.92F
$$

NOTE: "FAIR" INDICATES FEW OR NO CLOUDS BELOW 12,000 FEET WITH NO
SIGNIFICANT WEATHER AND/OR OBSTRUCTIONS TO VISIBILITY. WIND
SPEEDS ARE IN MILES-PER-HOUR.



USA.gov is the U.S. government's official web portal to all federal, state and local government web resources and services.